[[{"header":{"parameterUnit":"m.s-1","parameterCategory":1,"la1":30.2992,"la2":30.254,"lo1":-89.0895,"lo2":-89.0443,"dy":0.0025,"dx":0.0025,"nx":19,"ny":19,"refTime":"2026-03-17T21:00:00:Z","depth":0,"parameterNumber":2,"parameterNumberName":"U-component_of_WINDS"},"data":[0,0,0,-1.4399,-1.44,-1.4437,-1.4437,-1.4495,-1.4496,0,0,0,0,0,0,0,0,0,0,0,-1.4395,-1.4396,-1.4399,-1.44,-1.4437,-1.4437,-1.4495,-1.4496,0,0,0,0,0,0,0,0,0,0,0,-1.4395,-1.4396,-1.4396,-1.44,-1.4437,-1.4437,-1.4495,-1.4463,0,0,0,0,0,0,0,0,0,0,-1.4426,-1.4428,-1.4395,-1.4396,-1.4401,-1.4437,-1.4437,-1.4462,-1.4465,-1.4483,0,-1.4501,0,-1.4499,-1.45,-1.4501,0,0,0,-1.4395,-1.4426,-1.4429,-1.4397,-1.4401,-1.4437,-1.4419,-1.4463,-1.4468,-1.4488,-1.4502,-1.4504,-1.45,-1.4501,-1.4501,-1.4621,-1.4622,0,0,-1.4393,-1.4406,-1.4426,-1.4432,-1.4427,-1.4418,-1.442,-1.4466,-1.4482,-1.4502,-1.4505,-1.4501,-1.4501,-1.4502,-1.4621,-1.4622,0,0,0,-1.4391,-1.4404,-1.4407,-1.443,-1.4436,-1.4419,-1.4422,-1.4479,-1.4479,-1.4505,-1.4502,-1.4502,-1.4503,-1.462,-1.4621,-1.4673,0,0,0,-1.4389,-1.4403,-1.4406,-1.4414,-1.4435,-1.4458,-1.4435,-1.4476,-1.4481,-1.4502,-1.4502,-1.4503,-1.4619,-1.462,-1.4669,-1.4695,0,0,0,-1.439,-1.4403,-1.441,-1.4414,-1.4431,-1.4457,-1.4459,-1.4477,-1.4479,-1.4501,-1.4503,-1.4618,-1.462,-1.4666,-1.469,-1.4731,0,0,0,-1.4395,-1.4456,-1.4411,-1.4478,-1.443,-1.4488,-1.4459,-1.4502,-1.4526,-1.4502,-1.4619,-1.4621,-1.4665,-1.4687,-1.4728,-1.4768,-1.4785,0,0,-1.4479,-1.4466,-1.4504,-1.4466,-1.4535,-1.4482,-1.4558,-1.457,-1.456,-1.4602,-1.4604,-1.467,-1.469,-1.473,-1.4878,-1.4892,0,0,0,-1.4535,-1.4562,-1.4578,-1.4602,-1.4611,-1.4622,-1.462,-1.4624,-1.4658,-1.4584,-1.4695,-1.4706,-1.4729,-1.4748,-1.476,-1.4779,-1.463,-1.4629,-1.4629,-1.4671,-1.4656,-1.4717,-1.4707,-1.473,-1.4727,-1.4745,-1.4749,-1.4727,-1.4754,-1.4766,-1.4858,-1.488,-1.4889,-1.4909,-1.4785,-1.4785,-1.4786,-1.4786,-1.4792,-1.4829,-1.4798,-1.4846,-1.483,-1.487,-1.4869,-1.4852,-1.4888,-1.4847,-1.4867,-1.4824,-1.4905,-1.4922,-1.4789,-1.4789,-1.4788,-1.4788,-1.4788,-1.4881,-1.4896,-1.4899,-1.4932,-1.4959,-1.4945,-1.498,-1.4964,-1.4948,-1.4967,-1.4979,-1.4978,-1.4976,-1.4974,-1.4974,-1.4974,-1.4975,-1.4975,-1.4975,-1.4972,-1.4974,-1.5006,-1.5021,-1.5033,-1.5048,-1.5045,-1.5057,-1.5066,-1.5051,-1.5051,-1.5027,-1.4915,-1.4888,-1.498,-1.4979,-1.4979,-1.4978,-1.4978,-1.5103,-1.507,-1.512,-1.5133,-1.5148,-1.5176,-1.5153,-1.518,-1.5187,-1.5205,-1.5176,-1.5096,-1.5082,-1.5073,-1.505,-1.5179,-1.5179,-1.5179,-1.5179,-1.5178,-1.5169,-1.5216,-1.5237,-1.5257,-1.5241,-1.5298,-1.5295,-1.5288,-1.5291,-1.527,-1.5238,-1.5229,-1.5221,-1.5208,-1.5187,-1.5348,-1.5348,-1.5348,-1.5258,-1.525,-1.5302,-1.5293,-1.5304,-1.5313,-1.5366,-1.5392,-1.5377,-1.5354,-1.5294,-1.5287,-1.5235,-1.5219,-1.5197,-1.5177,-1.5138,0,0]},{"header":{"parameterUnit":"m.s-1","parameterCategory":1,"la1":30.2992,"la2":30.254,"lo1":-89.0895,"lo2":-89.0443,"dy":0.0025,"dx":0.0025,"nx":19,"ny":19,"refTime":"2026-03-17T21:00:00:Z","depth":0,"parameterNumber":3,"parameterNumberName":"V-component_of_WINDS"},"data":[0,0,0,-6.051,-6.0512,-6.064,-6.064,-6.0812,-6.0814,0,0,0,0,0,0,0,0,0,0,0,-6.048,-6.0482,-6.0509,-6.0513,-6.064,-6.064,-6.0812,-6.0814,0,0,0,0,0,0,0,0,0,0,0,-6.0479,-6.0481,-6.0483,-6.0513,-6.064,-6.064,-6.0811,-6.0711,0,0,0,0,0,0,0,0,0,0,-6.0586,-6.0568,-6.0481,-6.0483,-6.0514,-6.0639,-6.064,-6.0706,-6.0718,-6.0759,0,-6.0801,0,-6.081,-6.0826,-6.0827,0,0,0,-6.0506,-6.0558,-6.0586,-6.0483,-6.0515,-6.0639,-6.058,-6.0713,-6.0725,-6.0774,-6.0803,-6.0809,-6.0813,-6.0827,-6.0828,-6.1098,-6.1099,0,0,-6.0499,-6.0507,-6.0577,-6.0594,-6.0578,-6.0576,-6.0584,-6.072,-6.0751,-6.0804,-6.0813,-6.0816,-6.0828,-6.083,-6.1096,-6.1098,0,0,0,-6.0483,-6.0502,-6.0526,-6.0588,-6.061,-6.058,-6.059,-6.0745,-6.0752,-6.0815,-6.0818,-6.0829,-6.0832,-6.1094,-6.1097,-6.1184,0,0,0,-6.0479,-6.0493,-6.0523,-6.0529,-6.0608,-6.068,-6.0611,-6.0743,-6.0758,-6.0817,-6.083,-6.0833,-6.1093,-6.1096,-6.1178,-6.1224,0,0,0,-6.0469,-6.0492,-6.0513,-6.0529,-6.0584,-6.0677,-6.0692,-6.0746,-6.076,-6.0827,-6.0834,-6.1091,-6.1095,-6.1173,-6.1215,-6.1299,0,0,0,-6.046,-6.0587,-6.0515,-6.0658,-6.0583,-6.0731,-6.0691,-6.08,-6.0867,-6.083,-6.1093,-6.1096,-6.1171,-6.121,-6.1293,-6.1372,-6.1405,0,0,-6.0625,-6.0607,-6.0691,-6.063,-6.0793,-6.0711,-6.0886,-6.0939,-6.0936,-6.1043,-6.105,-6.118,-6.1215,-6.1298,-6.1587,-6.1614,0,0,0,-6.0746,-6.0807,-6.0848,-6.0914,-6.096,-6.1002,-6.1027,-6.1047,-6.1138,-6.0994,-6.1232,-6.1252,-6.1301,-6.1338,-6.136,-6.1402,-6.1114,-6.1113,-6.1113,-6.099,-6.0983,-6.1121,-6.113,-6.1194,-6.122,-6.1271,-6.1302,-6.1273,-6.1329,-6.1361,-6.1538,-6.1582,-6.1599,-6.1642,-6.1401,-6.1402,-6.1402,-6.1402,-6.1232,-6.1317,-6.1279,-6.1399,-6.139,-6.1489,-6.1519,-6.1496,-6.1587,-6.1513,-6.1555,-6.1476,-6.1629,-6.1666,-6.1409,-6.1407,-6.1407,-6.1406,-6.1406,-6.1393,-6.1432,-6.1456,-6.1552,-6.1626,-6.1628,-6.1718,-6.1705,-6.1693,-6.1735,-6.1768,-6.1766,-6.1764,-6.1751,-6.1752,-6.1753,-6.1753,-6.1754,-6.1754,-6.155,-6.1574,-6.1653,-6.1713,-6.1754,-6.1807,-6.1835,-6.1874,-6.1914,-6.1898,-6.1898,-6.1864,-6.1645,-6.1591,-6.1764,-6.1762,-6.1761,-6.176,-6.1759,-6.18,-6.1742,-6.1864,-6.1906,-6.1975,-6.2051,-6.2033,-6.2115,-6.2145,-6.219,-6.2148,-6.1988,-6.1968,-6.195,-6.1905,-6.2149,-6.2149,-6.2149,-6.2149,-6.1936,-6.1925,-6.2048,-6.2116,-6.2181,-6.2178,-6.2315,-6.2338,-6.2351,-6.237,-6.2332,-6.2271,-6.2253,-6.2244,-6.222,-6.2178,-6.2485,-6.2486,-6.2486,-6.209,-6.2085,-6.2205,-6.2221,-6.2274,-6.232,-6.2449,-6.2527,-6.2529,-6.2499,-6.2384,-6.237,-6.2271,-6.2239,-6.2207,-6.2169,-6.2092,0,0]}]]